ASTEX 1

Last updated on Sun Apr 12 2026 00:02:16 GMT+0000 (Coordinated Universal Time)

1 05560U 71089A 26101.44635396 .00000272 00000+0 69184-4 0 9993 2 05560 92.7070 162.3429 0014576 342.2642 17.8053 14.50803910867057
UTC large
Height (km)
Speed (km/s)
/
Latitude / Longitude
Inclination (degrees)
Orbital Period (minutes)
Azimuth
Elevation
Range (km)
Doppler Factor

Next 0 passes for location: London (51.5072 / 0.1276)

Sorry there are no passes over London.
ASTEX 1